QPF
0.00 0.00 0.00 0.00 0.00 0.00 0.00 0.00 0.00 0.00 0.00 0.00 0.01 0.02 0.01 0.01 0.01 0.00 0.00 0.00 0.00 0.00 0.00 0.00 0.00 0.00 0.00 0.00 0.00 0.00 0.00 0.00 0.00 0.00 0.00 0.00 0.00 0.00 0.00 0.00 0.00 0.00 0.00 0.00
0.00 0.00 0.00 0.00 0.00 0.00 0.00 0.00 0.00 0.00 0.00 0.00 0.00 0.00 0.01 0.02 0.01 0.00 0.00 0.00 0.00 0.00 0.00 0.01 0.00 0.00 0.00 0.00 0.00 0.00 0.00 0.00 0.00 0.00 0.00 0.00 0.00 0.00 0.00 0.00 0.00 0.00 0.00 0.00
0.00 0.00 0.00 0.00 0.00 0.00 0.00 0.00 0.00 0.00 0.00 0.00 0.00 0.00 0.01 0.03 0.02 0.02 0.02 0.03 0.00 0.00 0.00 0.00 0.00 0.00 0.00 0.00 0.00 0.00 0.00 0.00 0.00 0.00 0.00 0.00 0.00 0.00 0.00 0.00 0.00 0.00 0.00 0.00
0.00 0.00 0.00 0.00 0.00 0.00 0.00 0.00 0.00 0.00 0.00 0.00 0.01 0.01 0.01 0.00 0.01 0.07 0.08 0.09 0.02 0.00 0.00 0.00 0.00 0.00 0.00 0.00 0.00 0.00 0.00 0.00 0.00 0.00 0.00 0.00 0.00 0.00 0.00 0.00 0.00 0.00 0.00 0.00
0.00 0.00 0.00 0.00 0.00 0.00 0.00 0.00 0.00 0.00 0.00 0.00 0.01 0.01 0.01 0.00 0.01 0.07 0.06 0.02 0.00 0.00 0.00 0.00 0.01 0.01 0.01 0.00 0.00 0.00 0.00 0.00 0.00 0.00 0.00 0.00 0.00 0.00 0.00 0.00 0.00 0.00 0.00 0.00
0.00 0.00 0.00 0.00 0.00 0.00 0.00 0.00 0.00 0.00 0.00 0.00 0.00 0.01 0.00 0.01 0.04 0.04 0.02 0.00 0.00 0.00 0.00 0.02 0.02 0.01 0.00 0.00 0.00 0.00 0.00 0.00 0.00 0.00 0.00 0.00 0.00 0.00 0.00 0.00 0.00 0.00 0.00 0.00
0.00 0.00 0.00 0.00 0.00 0.00 0.00 0.00 0.00 0.00 0.00 0.00 0.00 0.00 0.00 0.02 0.01 0.00 0.00 0.00 0.00 0.00 0.00 0.00 0.00 0.00 0.00 0.00 0.00 0.00 0.00 0.00 0.00 0.00 0.00 0.00 0.00 0.00 0.00 0.00 0.00 0.00 0.00 0.00
0.00 0.00 0.00 0.00 0.00 0.00 0.00 0.00 0.00 0.00 0.00 0.00 0.00 0.00 0.01 0.02 0.02 0.01 0.00 0.00 0.00 0.00 0.00 0.00 0.00 0.00 0.00 0.00 0.00 0.00 0.00 0.00 0.00 0.00 0.00 0.00 0.00 0.00 0.00 0.00 0.00 0.00 0.00 0.00
0.00 0.00 0.00 0.00 0.00 0.00 0.00 0.00 0.00 0.00 0.00 0.00 0.00 0.00 0.01 0.04 0.02 0.00 0.00 0.00 0.00 0.00 0.00 0.00 0.00 0.00 0.00 0.00 0.00 0.00 0.00 0.00 0.00 0.00 0.00 0.00 0.00 0.00 0.00 0.00 0.00 0.00 0.01 0.02
0.00 0.00 0.00 0.00 0.00 0.00 0.00 0.00 0.00 0.00 0.00 0.00 0.00 0.00 0.00 0.01 0.00 0.00 0.00 0.00 0.00 0.00 0.00 0.00 0.00 0.00 0.00 0.00 0.00 0.00 0.00 0.00 0.00 0.00 0.00 0.00 0.00 0.00 0.00 0.00 0.00 0.00 0.00 0.00
0.00 0.00 0.00 0.00 0.00 0.00 0.00 0.00 0.00 0.00 0.00 0.00 0.00 0.00 0.00 0.00 0.00 0.00 0.00 0.00 0.00 0.00 0.00 0.00 0.00 0.00 0.00 0.00 0.00 0.00 0.00 0.00 0.00 0.00 0.00 0.00 0.00 0.00 0.00 0.00 0.00 0.00 0.00 0.00
0.00 0.00 0.00 0.00 0.00 0.00 0.00 0.00 0.00 0.00 0.00 0.00 0.00 0.00 0.00 0.00 0.00 0.00 0.00 0.00 0.00 0.00 0.00 0.00 0.00 0.00 0.00 0.00 0.00 0.00 0.00 0.00 0.00 0.00 0.00 0.00 0.00 0.00 0.00 0.00 0.00 0.00 0.00 0.00
0.00 0.00 0.00 0.00 0.00 0.00 0.00 0.00 0.00 0.00 0.00 0.00 0.00 0.00 0.00 0.00 0.00 0.00 0.00 0.00 0.00 0.00 0.00 0.00 0.00 0.00 0.00 0.00 0.00 0.00 0.00 0.00 0.00 0.00 0.00 0.00 0.00 0.00 0.00 0.00 0.00 0.00 0.00 0.00
0.00 0.00 0.00 0.00 0.00 0.00 0.00 0.00 0.00 0.00 0.00 0.00 0.00 0.00 0.00 0.00 0.00 0.00 0.00 0.00 0.00 0.00 0.00 0.00 0.00 0.00 0.00 0.00 0.00 0.00 0.00 0.00 0.00 0.00 0.00 0.00 0.00 0.00 0.00 0.00 0.00 0.00 0.00 0.00
0.00 0.00 0.00 0.00 0.00 0.00 0.00 0.00 0.00 0.00 0.00 0.00 0.00 0.00 0.00 0.00 0.00 0.00 0.00 0.00 0.00 0.00 0.00 0.00 0.00 0.00 0.00 0.00 0.00 0.00 0.00 0.00 0.00 0.00 0.00 0.00 0.00 0.00 0.00 0.00 0.00 0.00 0.00 0.00
0.00 0.00 0.00 0.00 0.00 0.00 0.00 0.00 0.00 0.00 0.00 0.00 0.00 0.00 0.00 0.00 0.00 0.00 0.00 0.00 0.00 0.00 0.00 0.00 0.00 0.00 0.00 0.00 0.00 0.00 0.00 0.00 0.00 0.00 0.00 0.00 0.00 0.00 0.00 0.00 0.00 0.00 0.00 0.00
0.00 0.00 0.00 0.01 0.00 0.01 0.01 0.00 0.00 0.00 0.00 0.00 0.00 0.00 0.00 0.00 0.00 0.00 0.00 0.00 0.00 0.00 0.00 0.00 0.00 0.00 0.00 0.00 0.00 0.00 0.00 0.00 0.00 0.00 0.00 0.00 0.00 0.00 0.00 0.00 0.00 0.00 0.00 0.00
0.01 0.00 0.00 0.00 0.03 0.01 0.00 0.00 0.00 0.00 0.00 0.00 0.00 0.00 0.00 0.00 0.00 0.00 0.00 0.00 0.00 0.00 0.00 0.00 0.00 0.00 0.00 0.00 0.00 0.00 0.00 0.00 0.00 0.00 0.00 0.00 0.00 0.00 0.00 0.00 0.00 0.00 0.00 0.00
0.01 0.00 0.00 0.02 0.03 0.03 0.00 0.00 0.00 0.00 0.00 0.00 0.00 0.00 0.00 0.00 0.00 0.00 0.00 0.00 0.00 0.00 0.00 0.00 0.00 0.00 0.00 0.00 0.00 0.00 0.00 0.00 0.00 0.00 0.00 0.00 0.00 0.00 0.00 0.00 0.00 0.00 0.00 0.00
0.02 0.01 0.03 0.05 0.02 0.03 0.00 0.00 0.00 0.00 0.00 0.00 0.00 0.00 0.00 0.00 0.00 0.00 0.00 0.00 0.00 0.00 0.00 0.00 0.00 0.00 0.00 0.00 0.00 0.00 0.00 0.00 0.00 0.00 0.00 0.00 0.00 0.00 0.00 0.00 0.00 0.00 0.00 0.00
0.00 0.00 0.02 0.04 0.02 0.00 0.00 0.00 0.00 0.00 0.00 0.00 0.00 0.00 0.00 0.00 0.00 0.00 0.00 0.00 0.00 0.00 0.00 0.00 0.00 0.00 0.00 0.00 0.00 0.00 0.00 0.00 0.00 0.00 0.00 0.00 0.00 0.00 0.00 0.00 0.00 0.00 0.00 0.00
0.02 0.01 0.02 0.02 0.01 0.01 0.00 0.00 0.00 0.00 0.00 0.00 0.00 0.00 0.00 0.00 0.00 0.00 0.00 0.00 0.00 0.00 0.00 0.00 0.00 0.00 0.00 0.00 0.00 0.00 0.00 0.00 0.00 0.00 0.00 0.00 0.00 0.00 0.00 0.00 0.00 0.00 0.00 0.00
0.03 0.01 0.00 0.00 0.00 0.00 0.00 0.00 0.00 0.00 0.00 0.00 0.00 0.00 0.00 0.00 0.00 0.00 0.00 0.00 0.00 0.00 0.00 0.00 0.00 0.00 0.00 0.00 0.00 0.00 0.00 0.00 0.00 0.00 0.00 0.00 0.00 0.00 0.00 0.00 0.00 0.00 0.00 0.00
0.01 0.01 0.00 0.00 0.00 0.00 0.00 0.00 0.00 0.00 0.00 0.00 0.00 0.00 0.00 0.00 0.00 0.00 0.00 0.00 0.00 0.00 0.00 0.00 0.00 0.00 0.00 0.00 0.00 0.00 0.00 0.00 0.00 0.00 0.00 0.00 0.00 0.00 0.00 0.00 0.00 0.00 0.00 0.00
0.00 0.00 0.00 0.00 0.00 0.00 0.00 0.00 0.00 0.00 0.00 0.00 0.00 0.00 0.00 0.00 0.00 0.00 0.00 0.00 0.00 0.00 0.00 0.00 0.00 0.00 0.00 0.00 0.00 0.00 0.00 0.00 0.00 0.00 0.00 0.00 0.00 0.00 0.00 0.00 0.00 0.00 0.00 0.00
0.00 0.00 0.00 0.00 0.00 0.00 0.00 0.00 0.00 0.00 0.00 0.00 0.00 0.00 0.00 0.00 0.00 0.00 0.00 0.00 0.00 0.00 0.00 0.00 0.00 0.00 0.00 0.00 0.00 0.00 0.00 0.00 0.00 0.00 0.00 0.00 0.00 0.00 0.00 0.00 0.00 0.00 0.00 0.00
MSLP
1008.71 1009.53 1010.15 1009.72 1010.21 1010.84 1012.46 1013.63 1014.79 1016.92 1018.67 1020.63 1022.65 1023.87 1024.51 1025.24 1025.07 1025.52 1025.85 1025.85 1026.18 1026.25 1026.13 1026.08 1025.85 1026.00 1026.05 1025.92 1025.72 1025.66 1025.78 1025.46 1025.01 1024.82 1024.63 1024.39 1024.16 1023.61 1023.03 1022.64 1022.22 1022.07 1021.74 1021.47
1009.47 1009.58 1009.27 1009.69 1009.62 1010.83 1012.20 1013.69 1015.88 1018.66 1019.43 1020.66 1023.21 1024.40 1025.08 1025.23 1025.73 1025.93 1026.01 1026.22 1026.22 1026.21 1026.14 1026.16 1025.99 1025.93 1025.87 1025.83 1025.91 1025.92 1025.87 1025.47 1025.18 1024.92 1024.75 1024.60 1024.31 1023.91 1023.51 1023.18 1022.57 1022.21 1021.91 1021.60
1009.29 1008.58 1008.65 1009.04 1009.88 1010.80 1012.01 1012.89 1013.96 1017.08 1019.99 1021.58 1022.21 1024.45 1025.01 1025.32 1025.46 1025.65 1025.64 1025.85 1026.20 1026.39 1026.28 1026.35 1026.29 1026.16 1026.08 1025.96 1025.89 1025.93 1025.76 1025.52 1025.40 1025.22 1024.99 1024.57 1024.13 1023.82 1023.76 1023.44 1023.08 1022.51 1021.94 1021.61
1009.06 1008.66 1008.89 1009.43 1009.86 1010.43 1011.48 1011.93 1012.89 1015.49 1017.82 1020.84 1021.90 1024.56 1025.31 1025.58 1025.44 1025.64 1025.99 1026.30 1026.48 1026.22 1026.49 1026.61 1026.51 1026.41 1026.27 1026.58 1026.46 1026.23 1026.26 1026.08 1025.90 1025.65 1025.43 1025.28 1025.16 1024.90 1024.38 1023.89 1023.34 1022.52 1021.95 1021.56
1010.05 1009.61 1009.39 1009.79 1010.24 1010.36 1011.53 1011.85 1012.88 1014.49 1016.88 1019.12 1021.83 1023.08 1024.97 1025.45 1025.44 1025.93 1026.21 1026.45 1026.30 1026.33 1026.57 1026.69 1026.67 1026.69 1026.67 1026.70 1026.90 1026.90 1026.67 1026.38 1026.19 1025.94 1025.94 1025.69 1025.39 1025.16 1024.65 1024.19 1023.58 1022.90 1022.34 1021.99
1009.99 1009.64 1009.75 1009.93 1010.26 1010.82 1011.41 1012.16 1013.62 1015.46 1017.70 1020.78 1022.38 1022.89 1024.73 1024.93 1025.11 1025.75 1026.19 1026.44 1026.40 1026.54 1026.57 1026.56 1026.82 1027.14 1027.21 1027.38 1027.50 1027.44 1027.14 1026.73 1026.11 1025.98 1026.11 1025.90 1025.65 1025.36 1025.03 1024.56 1024.06 1023.42 1022.85 1022.25
1010.74 1010.46 1010.10 1010.00 1010.52 1011.15 1011.86 1013.66 1015.99 1017.85 1019.81 1022.44 1022.72 1023.40 1024.36 1024.38 1024.44 1025.10 1025.81 1026.37 1026.63 1026.74 1027.24 1027.73 1027.92 1028.14 1028.23 1028.12 1027.84 1027.26 1027.06 1026.83 1026.53 1026.40 1026.39 1026.07 1025.78 1025.46 1025.25 1024.85 1024.39 1023.89 1023.28 1022.53
1011.94 1011.34 1010.88 1010.94 1011.30 1012.05 1013.28 1014.80 1016.78 1018.64 1020.55 1022.67 1023.03 1024.05 1024.51 1024.47 1024.79 1025.43 1026.04 1026.56 1027.21 1027.72 1028.09 1028.38 1028.60 1028.76 1028.74 1028.47 1028.05 1027.68 1027.47 1027.30 1026.93 1026.73 1026.47 1026.19 1025.87 1025.54 1025.22 1024.83 1024.37 1023.89 1023.43 1022.75
1012.79 1012.48 1011.83 1011.57 1011.81 1012.42 1013.96 1015.10 1016.26 1018.10 1020.58 1022.60 1024.06 1024.45 1024.24 1024.71 1025.34 1025.78 1026.58 1027.18 1028.04 1028.31 1028.73 1028.95 1029.14 1029.16 1028.98 1028.66 1028.33 1028.03 1027.54 1027.41 1027.12 1026.90 1026.66 1026.34 1025.95 1025.51 1025.18 1024.77 1024.31 1023.90 1023.33 1022.52
1013.64 1013.40 1013.06 1012.53 1012.57 1013.54 1014.30 1015.35 1016.82 1018.78 1021.18 1023.50 1024.71 1024.78 1024.62 1024.94 1025.45 1026.10 1026.70 1027.64 1028.42 1028.87 1029.30 1029.49 1029.53 1029.39 1029.01 1028.70 1028.43 1027.91 1027.55 1027.46 1027.33 1027.06 1026.79 1026.44 1026.07 1025.58 1025.24 1024.81 1024.38 1023.92 1023.28 1022.78
1014.27 1014.58 1014.72 1013.88 1014.51 1014.71 1015.23 1016.27 1017.74 1019.40 1021.47 1022.99 1024.53 1024.63 1024.14 1024.64 1025.42 1026.15 1026.79 1027.57 1028.57 1029.12 1029.57 1029.85 1029.79 1029.51 1029.27 1028.94 1028.51 1028.19 1027.76 1027.59 1027.43 1027.14 1026.82 1026.53 1026.21 1025.74 1025.33 1024.94 1024.56 1024.08 1023.42 1023.05
1015.35 1015.94 1016.34 1015.91 1015.46 1015.22 1015.74 1016.94 1018.14 1020.20 1022.33 1023.50 1024.14 1024.63 1023.62 1024.44 1025.46 1026.31 1027.18 1028.06 1028.75 1029.30 1029.80 1029.94 1029.86 1029.67 1029.48 1029.10 1028.72 1028.37 1028.01 1027.79 1027.42 1027.20 1026.98 1026.64 1026.34 1025.93 1025.55 1025.16 1024.79 1024.30 1023.90 1023.40
1015.99 1017.22 1017.50 1016.91 1016.34 1016.07 1016.56 1017.36 1018.58 1020.12 1021.75 1023.57 1024.35 1024.93 1024.43 1024.93 1025.93 1026.60 1027.54 1028.42 1029.04 1029.52 1029.95 1029.96 1029.87 1029.79 1029.66 1029.20 1028.90 1028.54 1028.22 1027.84 1027.45 1027.19 1026.97 1026.68 1026.33 1026.07 1025.83 1025.44 1025.05 1024.57 1024.24 1023.92
1016.37 1017.74 1018.13 1018.10 1017.27 1017.20 1017.91 1018.53 1019.17 1020.46 1022.71 1023.79 1024.22 1024.78 1025.41 1025.72 1026.40 1027.20 1028.10 1028.84 1029.30 1029.72 1029.95 1030.06 1030.09 1029.90 1029.71 1029.33 1029.00 1028.63 1028.26 1027.88 1027.50 1027.22 1026.99 1026.75 1026.42 1026.19 1025.85 1025.48 1025.20 1024.88 1024.57 1024.36
1017.27 1018.50 1018.49 1018.40 1018.30 1018.29 1018.92 1019.76 1020.16 1021.05 1022.56 1023.67 1024.59 1025.04 1025.42 1025.75 1026.60 1027.47 1028.35 1029.16 1029.49 1029.80 1029.94 1030.08 1030.12 1029.92 1029.77 1029.41 1029.08 1028.71 1028.31 1027.93 1027.59 1027.21 1026.95 1026.73 1026.44 1026.11 1025.83 1025.59 1025.32 1025.01 1024.81 1024.65
1018.00 1018.92 1019.19 1019.87 1019.55 1019.59 1020.31 1020.87 1021.30 1022.24 1023.07 1023.95 1024.74 1025.55 1025.94 1026.72 1027.43 1028.32 1029.04 1029.32 1029.53 1029.72 1029.91 1029.99 1030.00 1029.90 1029.82 1029.47 1029.17 1028.82 1028.42 1028.04 1027.67 1027.34 1027.02 1026.77 1026.45 1026.09 1025.84 1025.59 1025.36 1025.06 1024.79 1024.70
1019.03 1019.85 1020.53 1021.36 1020.93 1020.70 1021.96 1022.57 1022.76 1023.34 1023.85 1024.37 1025.01 1025.84 1026.58 1027.59 1028.20 1028.91 1029.28 1029.43 1029.52 1029.69 1029.84 1029.96 1029.92 1029.91 1029.75 1029.44 1029.13 1028.84 1028.49 1028.02 1027.81 1027.57 1027.20 1026.92 1026.63 1026.25 1025.91 1025.65 1025.39 1025.18 1024.90 1024.74
1020.19 1020.61 1021.18 1022.43 1022.35 1023.63 1024.01 1023.65 1023.35 1023.83 1024.55 1024.97 1025.72 1026.59 1027.49 1028.12 1028.78 1029.16 1029.24 1029.41 1029.62 1029.73 1029.87 1029.85 1029.81 1029.78 1029.62 1029.36 1029.02 1028.67 1028.32 1028.09 1027.91 1027.68 1027.37 1027.06 1026.81 1026.44 1026.03 1025.70 1025.51 1025.33 1025.08 1024.91
1021.67 1021.70 1022.66 1023.41 1024.64 1025.67 1024.82 1023.89 1024.02 1024.07 1025.45 1025.54 1026.30 1027.34 1028.09 1028.73 1029.16 1029.59 1029.44 1029.42 1029.56 1029.64 1029.63 1029.65 1029.55 1029.58 1029.56 1029.31 1028.95 1028.74 1028.39 1028.12 1027.96 1027.65 1027.38 1027.03 1026.78 1026.35 1025.94 1025.72 1025.47 1025.34 1025.33 1025.20
1022.63 1022.14 1022.97 1024.46 1025.17 1025.58 1024.63 1023.74 1023.53 1023.85 1025.80 1026.33 1026.44 1027.40 1028.19 1028.70 1029.30 1029.62 1029.45 1029.26 1029.43 1029.38 1029.40 1029.44 1029.41 1029.46 1029.39 1029.13 1028.83 1028.73 1028.42 1028.20 1027.88 1027.53 1027.22 1026.94 1026.74 1026.59 1026.30 1025.90 1025.68 1025.52 1025.38 1025.39
1023.16 1023.38 1023.97 1024.58 1025.27 1025.43 1024.79 1024.06 1023.55 1024.83 1026.84 1026.79 1026.88 1027.34 1027.91 1028.53 1028.68 1028.84 1029.01 1029.26 1029.28 1029.12 1029.21 1029.22 1029.29 1029.32 1029.22 1028.96 1028.66 1028.62 1028.47 1028.28 1027.91 1027.29 1027.23 1027.04 1026.78 1026.65 1026.41 1026.16 1025.84 1025.68 1025.50 1025.45
1024.47 1024.44 1024.83 1025.07 1025.82 1025.91 1024.98 1024.64 1025.04 1026.23 1026.52 1026.75 1027.09 1027.59 1028.03 1028.38 1028.65 1028.86 1028.94 1029.18 1029.10 1028.99 1029.09 1029.08 1029.19 1029.16 1029.00 1028.79 1028.70 1028.58 1028.46 1028.20 1027.84 1027.56 1027.31 1027.11 1026.93 1026.71 1026.55 1026.49 1026.24 1026.09 1025.87 1025.78
1025.30 1024.97 1025.20 1025.55 1025.75 1025.69 1025.45 1025.54 1025.67 1025.90 1026.30 1026.59 1027.07 1027.66 1027.95 1028.44 1028.72 1028.89 1029.15 1029.18 1029.04 1028.96 1029.09 1028.97 1028.95 1028.93 1028.85 1028.66 1028.60 1028.51 1028.33 1028.08 1027.82 1027.62 1027.52 1027.28 1027.04 1026.85 1026.72 1026.76 1026.64 1026.60 1026.50 1026.44
1025.32 1024.79 1025.45 1025.71 1025.92 1025.74 1025.69 1025.66 1025.57 1025.76 1026.21 1026.55 1026.95 1027.53 1028.00 1028.40 1028.66 1028.91 1029.08 1029.12 1029.03 1028.96 1028.92 1028.83 1028.81 1028.84 1028.81 1028.59 1028.41 1028.28 1028.07 1027.87 1027.77 1027.76 1027.55 1027.22 1027.03 1026.84 1026.71 1026.67 1026.80 1026.92 1027.02 1026.80
1026.26 1025.73 1026.15 1026.33 1026.14 1025.82 1025.69 1025.41 1025.58 1025.90 1026.15 1026.55 1026.96 1027.37 1027.88 1028.21 1028.52 1028.66 1028.89 1028.95 1028.96 1028.86 1028.76 1028.73 1028.72 1028.80 1028.67 1028.42 1028.30 1028.10 1027.83 1027.74 1027.77 1027.73 1027.60 1027.30 1026.96 1026.77 1026.64 1026.68 1026.69 1026.76 1026.73 1026.75
1026.95 1026.69 1026.77 1026.48 1025.87 1025.57 1025.36 1025.11 1025.33 1025.79 1026.17 1026.41 1026.93 1027.56 1027.71 1027.81 1028.11 1028.31 1028.54 1028.60 1028.70 1028.73 1028.67 1028.60 1028.56 1028.50 1028.44 1028.30 1028.11 1027.87 1027.67 1027.64 1027.62 1027.74 1027.61 1027.29 1026.89 1026.57 1026.29 1026.55 1026.77 1026.42 1026.35 1026.41
Thickness
5798 5775 5758 5774 5776 5779 5756 5745 5739 5721 5713 5686 5666 5658 5657 5653 5653 5649 5644 5643 5635 5633 5634 5629 5627 5620 5613 5610 5606 5601 5592 5587 5582 5576 5570 5564 5560 5557 5557 5554 5553 5551 5551 5550
5776 5760 5784 5790 5788 5771 5758 5739 5718 5694 5701 5689 5664 5649 5648 5649 5644 5643 5638 5632 5630 5629 5627 5624 5619 5614 5606 5601 5593 5586 5578 5574 5569 5563 5558 5551 5546 5543 5540 5537 5535 5534 5533 5532
5763 5784 5801 5793 5778 5765 5753 5747 5751 5704 5684 5679 5671 5646 5641 5642 5642 5641 5639 5630 5628 5621 5616 5609 5605 5599 5595 5586 5578 5571 5565 5560 5555 5548 5542 5538 5534 5530 5524 5521 5519 5518 5518 5517
5778 5795 5787 5775 5771 5767 5741 5766 5763 5739 5705 5662 5673 5632 5634 5634 5634 5635 5629 5621 5617 5615 5606 5599 5592 5587 5581 5571 5565 5560 5551 5545 5540 5534 5527 5519 5513 5508 5506 5503 5502 5503 5503 5503
5766 5774 5773 5764 5765 5772 5753 5769 5761 5750 5716 5692 5667 5646 5634 5632 5631 5627 5622 5615 5614 5608 5597 5591 5583 5575 5569 5561 5553 5544 5540 5535 5528 5524 5516 5509 5503 5495 5491 5488 5488 5488 5489 5489
5777 5792 5780 5775 5776 5767 5766 5752 5739 5722 5696 5650 5651 5648 5627 5628 5630 5624 5617 5612 5608 5599 5594 5587 5580 5567 5557 5549 5541 5535 5531 5527 5526 5520 5510 5501 5494 5486 5479 5474 5472 5471 5473 5476
5761 5763 5778 5780 5759 5757 5745 5715 5672 5672 5647 5633 5652 5636 5625 5639 5641 5628 5617 5609 5604 5600 5588 5576 5564 5553 5547 5541 5536 5536 5529 5525 5521 5514 5503 5496 5487 5479 5471 5465 5462 5461 5461 5465
5726 5718 5759 5765 5753 5737 5727 5708 5667 5657 5645 5629 5646 5624 5623 5638 5633 5625 5617 5608 5598 5584 5574 5564 5556 5548 5540 5535 5533 5530 5524 5519 5514 5507 5499 5492 5484 5475 5468 5462 5459 5457 5456 5458
5722 5724 5759 5758 5748 5742 5716 5700 5712 5678 5656 5630 5624 5630 5641 5633 5624 5618 5606 5601 5582 5574 5564 5558 5548 5540 5534 5531 5529 5525 5523 5516 5511 5504 5496 5490 5483 5475 5467 5462 5459 5456 5456 5457
5734 5716 5737 5745 5740 5728 5714 5718 5677 5660 5642 5614 5612 5615 5620 5621 5617 5609 5602 5589 5576 5567 5558 5549 5542 5537 5534 5530 5526 5524 5521 5514 5508 5502 5495 5491 5483 5477 5470 5464 5460 5457 5456 5456
5731 5714 5706 5722 5704 5695 5692 5686 5679 5664 5645 5620 5610 5615 5630 5624 5615 5604 5595 5590 5571 5563 5554 5544 5536 5532 5529 5526 5525 5521 5518 5513 5507 5502 5497 5491 5484 5478 5472 5466 5461 5457 5455 5454
5721 5695 5677 5694 5709 5710 5699 5685 5668 5637 5640 5621 5611 5613 5640 5626 5613 5599 5593 5578 5567 5560 5547 5537 5532 5529 5526 5523 5522 5521 5515 5511 5508 5503 5497 5492 5486 5480 5474 5468 5464 5461 5457 5456
5711 5677 5653 5668 5682 5692 5683 5685 5673 5653 5637 5622 5606 5604 5629 5622 5606 5597 5583 5572 5563 5553 5539 5533 5530 5526 5523 5522 5520 5518 5513 5511 5508 5504 5498 5493 5488 5484 5478 5473 5469 5465 5462 5459
5707 5677 5666 5649 5668 5676 5664 5667 5666 5648 5620 5619 5615 5613 5609 5606 5599 5587 5574 5563 5555 5546 5538 5530 5524 5521 5520 5520 5518 5516 5514 5511 5508 5505 5500 5495 5491 5488 5485 5481 5476 5472 5468 5466
5695 5668 5675 5674 5676 5673 5664 5655 5655 5646 5636 5615 5616 5608 5605 5603 5594 5584 5570 5559 5553 5544 5536 5528 5521 5519 5518 5518 5517 5515 5513 5511 5509 5507 5503 5499 5496 5493 5489 5486 5483 5481 5477 5473
5687 5663 5671 5656 5665 5661 5647 5647 5648 5641 5633 5623 5615 5608 5605 5597 5587 5575 5564 5557 5549 5541 5533 5525 5520 5520 5516 5517 5516 5515 5514 5512 5509 5508 5506 5503 5500 5499 5495 5493 5490 5488 5486 5483
5674 5660 5646 5632 5653 5647 5620 5629 5630 5627 5626 5621 5605 5607 5599 5583 5576 5564 5556 5551 5544 5534 5527 5521 5517 5516 5515 5516 5515 5514 5514 5513 5510 5509 5507 5505 5503 5502 5501 5500 5498 5496 5495 5492
5665 5657 5649 5627 5629 5599 5618 5632 5632 5624 5620 5617 5611 5598 5586 5578 5568 5560 5553 5544 5535 5526 5519 5516 5513 5513 5515 5515 5516 5515 5515 5514 5512 5511 5509 5508 5506 5505 5505 5505 5503 5502 5501 5500
5650 5643 5628 5615 5603 5599 5613 5626 5622 5620 5606 5613 5602 5589 5581 5572 5563 5554 5549 5541 5530 5520 5513 5511 5512 5514 5514 5515 5516 5515 5516 5515 5514 5513 5512 5511 5510 5511 5512 5511 5511 5508 5507 5506
5645 5644 5631 5615 5604 5594 5619 5633 5636 5629 5590 5603 5600 5589 5578 5571 5554 5544 5547 5543 5530 5521 5514 5512 5514 5515 5516 5517 5517 5517 5517 5516 5516 5517 5516 5516 5515 5514 5515 5517 5517 5516 5515 5513
5626 5628 5622 5615 5605 5609 5623 5630 5636 5598 5584 5600 5597 5591 5582 5569 5560 5557 5550 5539 5530 5524 5520 5519 5518 5518 5518 5519 5520 5518 5517 5517 5517 5520 5520 5519 5520 5519 5519 5520 5522 5522 5522 5521
5616 5618 5614 5615 5598 5593 5625 5623 5606 5601 5604 5598 5591 5584 5576 5570 5563 5556 5548 5538 5533 5529 5525 5524 5521 5521 5522 5521 5521 5522 5519 5519 5521 5521 5521 5522 5522 5524 5524 5522 5524 5524 5525 5525
5610 5620 5614 5612 5604 5616 5617 5613 5614 5607 5602 5600 5590 5582 5576 5569 5562 5555 5543 5537 5534 5532 5526 5526 5526 5524 5524 5524 5523 5522 5522 5522 5522 5522 5523 5524 5526 5527 5527 5526 5526 5525 5525 5526
5623 5629 5613 5614 5618 5616 5614 5615 5613 5609 5601 5595 5590 5582 5575 5567 5561 5553 5545 5538 5534 5532 5530 5529 5529 5527 5525 5525 5525 5525 5525 5525 5525 5524 5525 5527 5529 5531 5531 5531 5530 5528 5526 5527
5614 5619 5609 5605 5614 5614 5614 5613 5610 5604 5600 5594 5587 5582 5574 5567 5562 5556 5548 5541 5536 5534 5532 5530 5529 5526 5526 5526 5526 5526 5528 5527 5526 5526 5527 5529 5532 5535 5536 5535 5535 5534 5533 5533
5609 5610 5601 5593 5610 5609 5609 5615 5609 5601 5596 5591 5585 5578 5575 5569 5564 5559 5551 5545 5540 5537 5533 5532 5531 5529 5527 5527 5527 5528 5529 5528 5528 5526 5528 5530 5533 5537 5539 5538 5537 5539 5539 5539